Weather History for West Plains, MO

Change the Weather History Date:

Monday, April 1, 2013

  Actual Average Record
Temperature  
Mean Temperature 50 °F 53 °F  
Max Temperature 59 °F 65 °F 86 °F (2012)
Min Temperature 41 °F 41 °F 22 °F (1954)
Degree Days  
Heating Degree Days 15 12  
Month to date heating degree days 15 12  
Since 1 July heating degree days 4061 4022  
Cooling Degree Days 0 0  
Month to date cooling degree days 0 0  
Year to date cooling degree days 0 4  
Moisture  
Dew Point 32 °F    
Average Humidity 56    
Maximum Humidity 71    
Minimum Humidity 40    
Precipitation  
Precipitation T in 0.16 in 0.92 in (1983)
Month to date precipitation T 0.16  
Year to date precipitation 11.07 10.01  
Sea Level Pressure  
Sea Level Pressure 30.12 in    
Wind  
Wind Speed 8 mph (North)    
Max Wind Speed 16 mph    
Max Gust Speed 20 mph    
Visibility 10 miles    
Events Rain    
T = Trace of Precipitation, MM = Missing Value Source: NWS Daily Summary

Daily Weather History Graph

Daily Weather History Graph

Search for Another Location

Airport:

Trip Planner

Search our weather history database for the weather conditions in past years. The results will help you decide how hot, cold, wet, or windy it might be!

Date:

Astronomy

Apr. 01, 2013 Rise Set
Actual Time 6:53 AM CDT 7:30 PM CDT
Civil Twilight 6:26 AM CDT 7:56 PM CDT
Nautical Twilight 5:56 AM CDT 8:27 PM CDT
Astronomical Twilight 5:24 AM CDT 8:58 PM CDT
Moon 12:32 AM CDT (4/1) 10:46 AM CDT (4/1)
Length of Visible Light 13h 29m
Length of Day
12h 37m
Waning Gibbous, 67% of the Moon is Illuminated
Apr 1
Waning Gibbous
Apr 2
Last Quarter
Apr 10
New
Apr 18
First Quarter
Apr 25
Full

Hourly Weather History & Observations

Time (CDT) Temp. Windchill Dew Point Humidity Pressure Visibility Wind Dir Wind Speed Gust Speed Precip Events Conditions
1:53 AM 46.0 °F - 37.0 °F 71% 29.96 in 10.0 mi Calm Calm - N/A   Clear
2:53 AM 46.9 °F - 37.0 °F 68% 29.97 in 10.0 mi NNW 3.5 mph - N/A   Clear
5:53 AM 43.0 °F 37.7 °F 33.1 °F 68% 30.05 in 10.0 mi NNE 9.2 mph - N/A   Clear
6:53 AM 41.0 °F 34.7 °F 32.0 °F 70% 30.07 in 10.0 mi NNE 10.4 mph - N/A   Clear
7:53 AM 43.0 °F 36.0 °F 30.9 °F 62% 30.12 in 10.0 mi NNE 13.8 mph - N/A   Clear
8:53 AM 46.0 °F 40.2 °F 32.0 °F 58% 30.13 in 10.0 mi North 12.7 mph 19.6 mph N/A   Clear
9:53 AM 48.9 °F - 34.0 °F 56% 30.14 in 10.0 mi NE 12.7 mph - N/A   Clear
10:53 AM 51.1 °F - 34.0 °F 52% 30.15 in 10.0 mi NNE 11.5 mph - N/A   Clear
11:53 AM 54.0 °F - 34.0 °F 47% 30.16 in 10.0 mi NNE 4.6 mph - N/A   Clear
12:53 PM 55.9 °F - 36.0 °F 47% 30.14 in 10.0 mi NNE 10.4 mph - N/A   Clear
1:53 PM 55.9 °F - 34.0 °F 44% 30.14 in 10.0 mi Variable 5.8 mph - N/A   Partly Cloudy
2:53 PM 55.9 °F - 34.0 °F 44% 30.13 in 10.0 mi Variable 3.5 mph - N/A   Mostly Cloudy
3:53 PM 57.0 °F - 34.0 °F 42% 30.13 in 10.0 mi North 9.2 mph - N/A   Mostly Cloudy
4:53 PM 55.0 °F - 33.1 °F 43% 30.14 in 10.0 mi NNW 9.2 mph - N/A   Overcast
5:53 PM 53.1 °F - 32.0 °F 45% 30.15 in 10.0 mi NNW 9.2 mph - N/A   Scattered Clouds
6:53 PM 51.1 °F - 30.0 °F 44% 30.15 in 10.0 mi North 9.2 mph - N/A   Overcast
7:53 PM 48.9 °F - 27.0 °F 43% 30.15 in 10.0 mi North 10.4 mph - N/A   Overcast
8:53 PM 46.9 °F - 24.1 °F 41% 30.14 in 10.0 mi NE 8.1 mph - N/A   Overcast
9:53 PM 46.0 °F 41.9 °F 24.1 °F 42% 30.17 in 10.0 mi North 8.1 mph - N/A   Mostly Cloudy
10:53 PM 44.1 °F 41.5 °F 28.0 °F 53% 30.19 in 10.0 mi North 4.6 mph - 0.00 in Rain Light Rain
11:53 PM 44.1 °F 38.1 °F 24.1 °F 45% 30.20 in 10.0 mi NNE 11.5 mph - 0.00 in   Overcast